Temperature
6 6 6 6 5 5 5 6 6 8 8 9 9 9 8 7 7 6 5 5 5 4 4 4 4 4 5 5 5 5 5 5 5 5 5 5 5 5 5 5 5 6 6 6
4 5 5 5 6 6 6 6 6 6 7 9 8 8 7 7 6 5 5 4 4 4 4 4 4 4 4 4 4 4 4 4 4 4 4 4 4 4 5 5 5 5 5 5
5 5 4 4 6 6 6 6 6 6 8 8 8 7 7 6 5 5 4 4 4 3 3 3 3 3 3 4 4 4 4 4 4 4 4 4 4 4 4 4 4 5 5 5
4 3 3 7 7 6 6 6 6 6 7 7 7 6 5 5 5 4 4 3 3 3 3 3 3 3 3 3 3 3 3 4 3 3 3 3 3 4 4 4 4 4 5 5
3 4 5 7 6 5 5 6 6 6 6 6 5 5 5 5 4 4 3 3 3 3 3 3 3 3 3 3 3 3 3 3 3 3 3 3 3 3 3 3 4 4 4 4
3 3 4 7 6 5 5 5 6 6 6 6 5 5 6 5 4 3 3 3 3 3 2 2 2 2 2 2 2 2 2 3 3 3 3 3 3 3 3 3 3 3 4 4
3 3 5 6 4 4 5 6 6 5 5 5 5 5 5 4 3 3 3 3 2 2 2 2 2 2 2 2 2 2 2 2 2 2 2 2 2 3 3 3 3 3 3 3
3 3 4 5 3 5 6 5 5 5 4 4 4 3 3 3 3 2 2 2 2 2 2 2 2 1 1 1 1 1 1 2 2 2 2 2 2 2 2 2 2 3 3 3
4 5 6 4 4 5 4 4 4 4 4 3 3 3 3 2 2 2 2 2 2 1 1 1 1 1 1 1 1 1 1 1 1 1 2 2 2 2 2 2 2 2 2 2
3 4 4 3 3 3 3 3 3 3 3 2 2 2 2 2 2 2 1 1 1 1 1 1 1 1 0 0 0 0 0 0 0 1 1 1 1 1 1 1 1 1 1 1
3 4 4 3 3 3 3 3 2 2 2 2 1 1 1 1 1 1 1 1 0 0 0 0 0 0 0 -0 -0 -1 -0 -0 -0 0 0 0 0 1 1 1 1 1 1 1
3 4 4 4 3 3 2 2 2 1 1 1 1 1 0 0 0 0 0 0 -0 -0 -0 -0 -0 -1 -1 -1 -1 -1 -1 -1 -1 -1 -1 -0 -0 -0 0 0 0 1 0 1
3 2 2 2 2 1 1 1 1 1 0 0 0 -0 -0 -0 -0 -0 -1 -1 -1 -1 -1 -1 -1 -1 -1 -1 -2 -2 -2 -2 -2 -2 -1 -1 -1 -1 -1 -0 -0 0 0 0
1 0 1 0 0 0 -0 -0 -0 -0 -0 -1 -1 -1 -1 -1 -1 -1 -1 -1 -1 -2 -2 -2 -2 -2 -2 -2 -2 -2 -2 -2 -2 -2 -2 -2 -2 -2 -2 -2 -1 -1 -0 -0
-1 -1 -1 -1 -1 -1 -1 -1 -1 -1 -1 -2 -2 -2 -2 -2 -2 -2 -2 -2 -2 -2 -2 -2 -2 -2 -2 -2 -2 -2 -3 -3 -3 -3 -3 -3 -3 -3 -2 -2 -2 -2 -1 -1
-2 -2 -2 -2 -2 -2 -2 -2 -2 -2 -2 -3 -3 -3 -3 -3 -3 -3 -3 -3 -3 -3 -3 -3 -3 -3 -3 -3 -3 -3 -3 -3 -3 -3 -3 -3 -3 -3 -3 -3 -3 -3 -2 -2
-3 -3 -3 -3 -3 -3 -3 -3 -3 -3 -3 -3 -3 -3 -3 -3 -3 -3 -3 -3 -4 -4 -4 -4 -4 -4 -4 -4 -4 -4 -4 -4 -4 -4 -4 -4 -4 -4 -4 -4 -4 -3 -3 -2
-4 -4 -4 -4 -4 -4 -4 -4 -4 -4 -4 -4 -4 -4 -4 -4 -4 -4 -4 -4 -4 -4 -4 -4 -4 -4 -4 -4 -4 -4 -4 -4 -4 -5 -5 -5 -5 -5 -5 -4 -4 -4 -3 -3
-4 -4 -4 -4 -4 -4 -4 -4 -4 -4 -5 -5 -5 -5 -5 -5 -5 -5 -5 -5 -5 -5 -4 -4 -5 -5 -5 -5 -5 -5 -5 -5 -5 -5 -5 -5 -5 -5 -5 -5 -5 -4 -4 -4
-5 -5 -5 -5 -5 -5 -5 -5 -5 -5 -5 -5 -6 -6 -6 -5 -5 -5 -6 -6 -6 -6 -5 -5 -5 -5 -5 -5 -5 -6 -6 -5 -5 -5 -5 -5 -5 -5 -5 -5 -5 -5 -5 -4
-5 -5 -5 -5 -5 -5 -6 -6 -6 -6 -6 -6 -6 -6 -6 -6 -6 -6 -6 -6 -6 -6 -6 -6 -6 -6 -6 -6 -6 -6 -6 -6 -6 -6 -6 -6 -6 -6 -6 -5 -5 -5 -5 -4
-6 -6 -6 -6 -6 -6 -6 -6 -7 -7 -7 -7 -7 -7 -7 -7 -7 -7 -7 -7 -7 -7 -7 -7 -7 -7 -7 -7 -6 -6 -6 -6 -6 -6 -6 -6 -6 -6 -6 -6 -6 -5 -5 -5
-7 -7 -7 -7 -7 -7 -7 -7 -7 -7 -7 -7 -7 -8 -8 -8 -8 -8 -8 -8 -8 -7 -7 -7 -7 -7 -7 -7 -7 -7 -7 -7 -6 -6 -6 -6 -6 -6 -6 -6 -6 -6 -6 -5
-7 -7 -8 -8 -8 -8 -8 -8 -8 -8 -8 -8 -8 -8 -8 -9 -9 -9 -9 -8 -8 -8 -8 -8 -8 -7 -7 -7 -7 -7 -7 -7 -7 -7 -7 -7 -6 -6 -6 -6 -6 -6 -6 -5
-8 -8 -8 -8 -8 -8 -8 -9 -9 -9 -9 -9 -9 -9 -9 -9 -9 -9 -9 -9 -9 -9 -8 -8 -8 -8 -8 -8 -8 -7 -7 -7 -7 -7 -7 -7 -7 -6 -6 -6 -6 -6 -6 -6
-8 -8 -8 -8 -9 -9 -9 -9 -9 -10 -10 -10 -9 -9 -9 -9 -10 -10 -9 -9 -9 -9 -9 -9 -8 -8 -8 -8 -8 -8 -8 -8 -7 -7 -7 -7 -7 -6 -6 -6 -6 -6 -6 -5
-9 -9 -9 -9 -9 -9 -10 -10 -10 -10 -10 -10 -10 -10 -10 -10 -10 -10 -10 -10 -9 -9 -9 -9 -9 -9 -9 -9 -9 -8 -8 -8 -8 -8 -7 -7 -7 -6 -6 -6 -6 -6 -5 -5
Wind_Speed
15 12 9 12 14 16 18 19 17 21 22 22 19 17 16 15 14 13 12 11 11 11 11 11 11 10 9 9 8 7 7 7 8 7 7 7 7 7 8 9 9 8 9 10
12 13 13 17 20 20 21 21 23 25 25 21 17 14 14 13 12 11 11 11 11 11 11 11 11 11 10 10 8 7 7 7 7 6 6 6 6 7 7 8 8 9 10 10
10 8 8 15 17 19 17 17 16 20 20 16 15 13 13 12 11 11 10 10 10 11 11 11 11 10 11 10 8 7 6 6 6 6 6 7 7 7 8 8 8 8 9 9
5 5 12 8 4 10 15 17 17 17 17 15 14 13 11 10 10 10 9 10 10 10 11 10 10 10 9 8 8 7 7 7 6 6 7 7 7 8 8 8 8 8 8 9
6 9 13 11 6 7 10 12 12 15 15 14 11 10 9 7 7 8 9 9 9 10 10 10 10 9 9 8 8 7 8 8 8 7 8 8 8 9 8 8 8 8 8 9
8 8 10 6 4 5 5 10 7 10 11 10 7 8 7 5 6 8 8 8 9 9 9 9 9 8 8 8 9 9 9 9 9 8 8 9 9 9 8 7 8 8 8 9
14 12 11 6 5 7 7 6 2 6 7 7 7 8 8 7 8 9 9 9 9 9 9 9 9 8 9 9 10 10 10 9 9 9 9 9 9 8 8 7 8 8 9 9
10 11 11 6 9 9 7 3 4 6 7 8 9 9 10 9 10 10 9 9 9 9 9 9 8 8 9 10 10 10 9 9 10 10 9 8 9 8 8 8 8 8 8 8
10 10 5 7 9 8 6 7 8 8 8 8 9 10 10 11 11 10 10 9 9 9 9 9 8 8 9 9 10 10 9 10 10 10 9 9 8 9 8 7 7 7 7 8
9 12 11 10 11 11 10 10 10 9 8 9 10 11 11 11 10 10 9 9 9 9 9 10 9 8 9 9 9 9 10 10 9 9 9 9 7 7 7 7 7 7 7 7
12 13 11 12 12 12 11 11 10 10 9 10 11 11 11 10 10 9 8 8 8 8 9 10 9 9 9 9 9 9 10 9 9 9 9 9 8 7 8 8 8 8 8 7
12 10 9 10 9 9 10 10 10 10 10 9 9 10 10 9 9 9 8 8 8 8 9 9 9 9 9 8 8 9 9 9 8 7 8 8 8 8 8 9 11 11 12 11
13 11 11 12 11 9 8 8 8 8 9 9 8 7 8 8 8 8 8 8 8 9 9 9 10 9 8 8 8 8 9 9 8 8 8 8 8 8 9 8 9 10 11 12
10 9 11 10 9 8 7 7 6 6 6 6 6 6 6 7 7 7 8 8 8 8 8 8 9 9 8 8 8 8 9 9 8 8 8 8 8 8 8 8 9 8 8 10
8 8 9 8 7 6 5 5 5 5 6 6 5 5 6 7 7 7 7 7 7 7 7 8 8 9 8 8 8 9 8 7 7 7 7 8 8 8 7 8 8 8 8 8
6 6 6 6 7 6 5 5 6 6 6 6 6 6 6 6 7 7 7 6 7 7 8 8 8 9 8 8 8 8 7 9 9 8 7 7 7 7 7 7 7 7 8 8
5 5 5 6 6 6 6 5 5 5 6 6 6 6 6 6 7 7 7 7 7 7 8 8 8 8 8 8 8 7 7 8 9 8 7 7 7 7 7 7 7 8 8 8
4 5 5 5 5 5 5 4 4 5 5 6 6 6 6 6 7 7 7 7 7 7 7 7 8 8 8 8 7 7 7 7 7 7 7 7 7 7 7 7 8 8 8 8
2 2 3 3 3 4 4 4 4 4 5 5 5 6 6 6 6 7 7 7 7 7 7 7 9 8 8 8 8 6 6 7 7 7 7 8 8 7 7 7 7 7 7 7
3 2 3 3 3 3 4 4 4 4 4 5 5 5 6 6 6 6 6 6 5 6 7 8 8 7 8 8 9 6 7 7 7 7 7 7 7 7 7 7 7 7 6 6
3 3 3 3 4 4 4 4 4 4 5 5 5 5 5 6 5 5 5 6 6 6 7 8 7 6 7 8 9 6 6 7 7 7 7 7 7 7 7 7 7 6 6 6
3 3 3 3 3 4 4 4 4 4 5 4 4 4 5 5 5 5 5 5 6 8 7 6 6 8 9 10 7 6 7 7 6 6 6 6 6 6 7 7 7 7 6 6
3 3 3 3 4 4 5 4 4 4 4 4 4 5 5 5 5 5 5 5 5 8 7 6 8 11 12 8 6 7 7 7 7 6 6 6 6 6 6 7 7 7 7 6
3 3 3 3 3 3 4 4 4 4 4 4 4 5 5 5 5 4 4 7 9 9 7 8 11 12 11 7 6 7 7 7 7 7 7 6 6 6 6 6 6 6 6 7
3 3 3 3 3 3 4 4 4 4 4 4 5 5 4 4 4 5 6 6 8 9 7 8 11 11 8 6 6 7 7 7 7 7 7 6 6 6 6 6 6 6 6 6
3 3 3 3 3 3 3 3 3 4 4 4 4 4 4 4 5 5 5 6 7 8 7 6 7 8 6 6 7 7 7 7 7 7 7 7 7 6 6 6 7 6 6 5
3 3 3 3 3 3 3 3 3 4 4 4 5 5 5 5 5 5 6 6 6 6 6 6 6 6 6 6 6 7 6 6 6 6 6 6 6 5 6 7 6 6 5 4
Wind_Direction
254 260 250 248 245 233 231 239 251 264 269 277 287 294 297 298 300 303 304 309 313 314 315 316 317 318 316 311 303 295 287 279 274 277 283 283 279 276 273 263 255 255 256 252
256 252 252 257 253 245 243 246 250 262 270 278 285 290 291 295 297 297 299 305 311 313 314 315 315 315 316 315 311 300 287 283 289 288 288 286 282 282 279 276 267 260 258 258
257 255 263 255 246 239 238 237 243 254 265 280 285 286 291 295 294 292 297 304 307 309 311 311 312 311 311 311 312 306 300 297 295 292 290 289 288 283 279 278 276 268 262 262
251 237 243 255 234 231 238 246 243 253 267 273 279 289 292 288 288 293 298 300 302 306 309 309 310 311 311 312 312 308 303 300 298 294 290 288 288 285 281 278 274 272 270 264
223 244 264 267 237 216 230 254 246 249 261 271 280 285 278 274 284 290 294 297 300 302 304 307 309 311 313 314 313 310 307 305 303 298 294 293 290 288 283 279 275 273 272 270
221 237 251 263 196 193 227 261 243 239 254 266 271 274 286 297 294 294 297 298 300 302 303 304 308 310 310 311 311 312 310 306 303 299 293 290 290 289 285 279 277 276 275 274
231 242 257 257 172 168 227 267 221 227 247 253 252 265 293 300 297 297 298 299 302 301 299 303 307 308 306 307 308 309 310 309 306 303 297 291 290 289 285 282 279 279 279 279
221 234 248 185 167 207 249 285 247 251 256 259 262 272 281 288 292 294 296 297 300 299 299 304 306 305 304 305 308 310 309 309 307 304 300 296 293 289 286 284 282 281 283 285
219 234 270 196 216 240 265 269 274 269 269 270 272 276 281 285 287 288 290 293 297 298 299 302 304 303 300 305 310 309 309 309 309 306 303 299 294 288 284 282 279 280 281 281
247 255 260 253 253 262 264 266 273 272 271 272 272 277 281 285 287 286 288 290 294 295 296 299 303 303 301 306 310 307 306 307 307 306 305 303 297 290 283 279 279 279 279 281
248 261 271 262 256 261 266 268 270 268 267 269 272 275 279 283 283 286 291 294 294 291 291 295 302 303 305 309 309 305 303 303 304 305 304 304 300 293 286 279 279 280 281 278
251 257 255 271 278 276 271 269 271 271 271 269 266 271 276 278 281 284 288 293 294 293 292 297 302 302 306 308 306 303 301 302 302 303 303 302 302 300 286 275 286 284 282 282
258 271 271 277 282 281 274 276 278 273 273 276 274 269 270 276 281 284 287 290 290 292 295 299 301 301 306 309 305 299 297 299 300 300 300 301 300 300 303 298 287 285 287 288
255 266 268 269 273 278 278 281 281 282 282 277 276 276 275 279 282 283 286 291 294 295 296 299 301 302 310 311 306 300 298 297 297 297 298 298 298 297 297 298 302 302 299 296
255 257 259 269 276 282 284 282 281 284 288 286 281 279 282 284 285 287 294 299 297 294 297 301 301 304 313 312 307 303 301 299 300 300 299 298 299 299 297 295 295 298 303 304
275 270 262 263 269 278 283 280 279 286 291 291 293 294 293 290 290 293 299 302 299 296 301 303 302 306 312 310 308 303 300 301 303 302 302 302 302 302 300 298 297 297 297 301
265 268 272 274 277 281 280 279 277 283 291 294 297 300 299 297 295 297 302 303 298 296 299 300 302 307 309 307 304 301 301 303 304 302 300 300 300 300 298 296 295 295 294 298
264 268 273 274 274 278 283 285 284 287 291 298 303 302 299 295 294 298 304 307 305 303 304 307 308 309 309 308 306 302 301 301 302 301 300 299 300 299 298 296 296 295 297 300
313 301 296 285 278 274 280 287 293 297 300 301 298 296 294 293 295 300 303 304 304 307 313 318 318 316 312 312 312 302 301 301 302 301 301 301 301 299 298 297 298 299 301 303
341 337 328 319 315 299 293 298 302 302 302 300 295 295 297 300 303 303 302 299 301 308 312 315 316 315 315 315 316 307 306 305 304 303 302 301 301 301 301 301 301 301 302 300
331 329 328 325 323 321 311 305 300 299 305 304 297 297 301 306 308 305 302 301 310 318 318 317 318 317 319 320 318 314 310 306 303 302 301 299 298 299 301 302 303 303 303 302
321 319 319 320 322 324 325 317 305 301 305 308 306 304 304 307 311 310 300 296 306 317 320 315 317 321 325 323 317 315 312 309 306 304 302 300 300 301 304 307 306 306 304 302
309 308 309 313 314 315 319 319 315 310 308 309 308 306 303 302 304 303 307 312 315 319 320 313 318 323 325 322 315 311 309 308 306 305 303 302 300 300 301 303 304 305 306 307
302 304 306 310 311 311 315 318 320 316 312 309 307 304 301 302 304 302 299 308 316 315 313 314 321 323 324 320 313 311 309 308 308 308 306 304 302 301 301 302 302 304 304 305
296 296 297 302 305 304 305 310 316 317 314 312 314 314 308 299 297 304 307 310 316 317 313 317 322 323 322 313 313 312 311 309 310 310 308 308 308 306 304 303 304 305 306 304
296 294 292 290 289 291 296 300 305 308 310 312 315 317 317 314 311 310 310 312 313 314 313 311 313 316 314 311 311 310 309 309 310 310 309 308 308 309 309 312 313 310 308 306
304 302 300 303 306 303 300 298 300 304 307 306 309 314 316 316 314 316 315 314 315 314 312 310 309 309 309 309 309 309 308 308 308 308 309 309 309 310 312 312 312 311 310 312
Height
1442 1442 1445 1444 1444 1446 1446 1440 1436 1422 1420 1416 1418 1418 1418 1417 1415 1413 1411 1408 1405 1403 1400 1396 1392 1389 1386 1383 1381 1379 1377 1376 1374 1373 1372 1371 1370 1370 1369 1369 1368 1368 1368 1368
1442 1440 1441 1440 1435 1435 1435 1433 1429 1425 1419 1415 1417 1417 1415 1414 1412 1411 1408 1406 1403 1400 1397 1394 1390 1386 1383 1380 1377 1376 1374 1372 1370 1369 1368 1367 1366 1365 1364 1363 1363 1362 1362 1361
1434 1436 1439 1431 1421 1422 1423 1421 1422 1418 1412 1412 1413 1412 1412 1411 1409 1407 1405 1403 1401 1398 1395 1392 1388 1385 1381 1378 1375 1373 1371 1369 1367 1365 1364 1363 1361 1361 1360 1358 1357 1356 1356 1355
1434 1438 1433 1410 1414 1414 1414 1413 1415 1413 1410 1410 1410 1410 1409 1408 1406 1404 1402 1400 1398 1395 1392 1389 1385 1382 1379 1376 1373 1370 1368 1366 1364 1362 1361 1359 1358 1357 1355 1354 1353 1351 1350 1350
1432 1426 1413 1408 1411 1413 1413 1408 1408 1408 1407 1407 1408 1407 1404 1404 1402 1401 1399 1397 1395 1392 1389 1386 1382 1379 1376 1373 1371 1368 1366 1363 1361 1359 1357 1355 1354 1352 1351 1349 1348 1347 1346 1345
1427 1423 1412 1400 1406 1409 1411 1405 1402 1403 1403 1404 1405 1402 1399 1400 1399 1397 1396 1394 1391 1389 1386 1383 1380 1377 1374 1371 1368 1365 1363 1361 1358 1356 1354 1351 1350 1348 1346 1345 1343 1342 1341 1339
1419 1415 1403 1400 1406 1409 1408 1399 1399 1399 1400 1401 1401 1399 1399 1397 1396 1394 1392 1390 1388 1385 1383 1380 1377 1374 1371 1368 1365 1362 1360 1357 1354 1352 1350 1348 1345 1343 1342 1340 1339 1337 1336 1334
1413 1412 1403 1399 1403 1402 1396 1396 1397 1397 1397 1398 1397 1396 1395 1394 1392 1391 1389 1387 1384 1381 1379 1376 1374 1371 1368 1365 1362 1359 1356 1353 1350 1348 1346 1343 1341 1339 1337 1336 1334 1332 1330 1329
1399 1395 1392 1395 1395 1394 1395 1395 1395 1395 1394 1394 1393 1392 1391 1390 1388 1387 1385 1382 1380 1378 1375 1372 1370 1368 1364 1361 1358 1355 1352 1349 1346 1344 1341 1339 1337 1335 1333 1332 1330 1328 1326 1324
1396 1390 1391 1392 1392 1392 1392 1392 1391 1391 1391 1390 1389 1388 1387 1385 1384 1382 1380 1378 1376 1373 1370 1368 1366 1363 1361 1358 1355 1352 1348 1346 1343 1340 1337 1335 1332 1330 1329 1327 1325 1323 1322 1320
1390 1387 1388 1387 1387 1387 1387 1387 1387 1386 1386 1386 1385 1383 1382 1380 1379 1377 1375 1373 1371 1368 1366 1364 1361 1359 1356 1354 1351 1348 1344 1341 1338 1335 1332 1330 1327 1326 1324 1322 1321 1319 1317 1316
1381 1381 1383 1382 1382 1383 1383 1382 1382 1381 1380 1380 1379 1378 1377 1375 1374 1372 1370 1368 1366 1364 1361 1359 1357 1354 1352 1349 1347 1344 1340 1337 1334 1331 1328 1325 1323 1320 1318 1317 1315 1314 1312 1311
1378 1378 1379 1378 1378 1378 1378 1377 1377 1376 1375 1374 1373 1372 1371 1370 1368 1367 1365 1363 1361 1359 1357 1355 1352 1349 1347 1345 1342 1339 1336 1333 1330 1327 1324 1321 1318 1315 1312 1311 1310 1308 1307 1305
1374 1375 1374 1374 1374 1373 1373 1372 1372 1371 1370 1369 1368 1367 1366 1365 1363 1362 1360 1358 1356 1354 1352 1350 1347 1345 1343 1340 1338 1335 1332 1329 1326 1323 1320 1317 1314 1312 1309 1306 1303 1301 1301 1299
1370 1370 1370 1369 1369 1369 1368 1368 1367 1366 1365 1364 1363 1362 1361 1360 1358 1357 1356 1354 1352 1349 1347 1345 1343 1340 1338 1336 1333 1330 1327 1324 1322 1319 1316 1313 1310 1308 1305 1302 1300 1297 1295 1294
1366 1366 1365 1365 1364 1364 1364 1363 1363 1362 1361 1360 1359 1358 1357 1356 1354 1352 1351 1349 1347 1345 1343 1341 1338 1336 1334 1331 1328 1326 1323 1320 1317 1314 1311 1309 1306 1303 1301 1299 1296 1294 1292 1290
1362 1362 1361 1361 1361 1360 1360 1360 1359 1358 1357 1356 1355 1354 1353 1351 1350 1348 1346 1344 1343 1341 1339 1337 1334 1332 1329 1327 1324 1322 1319 1316 1313 1310 1308 1305 1302 1300 1297 1295 1293 1290 1289 1287
1359 1359 1358 1358 1357 1357 1357 1356 1355 1355 1354 1352 1351 1350 1348 1347 1345 1343 1342 1340 1338 1336 1334 1332 1330 1328 1325 1323 1320 1318 1315 1312 1310 1307 1304 1301 1299 1296 1294 1292 1289 1287 1285 1283
1356 1355 1355 1355 1354 1354 1353 1352 1352 1351 1350 1349 1347 1346 1344 1343 1341 1339 1337 1335 1333 1331 1329 1327 1325 1323 1321 1319 1316 1314 1311 1308 1306 1303 1301 1298 1295 1293 1290 1288 1286 1284 1282 1279
1354 1353 1353 1352 1351 1351 1350 1349 1348 1347 1346 1345 1343 1342 1340 1339 1337 1335 1333 1332 1330 1328 1326 1324 1321 1319 1317 1315 1313 1310 1307 1305 1302 1299 1297 1294 1292 1289 1287 1285 1283 1280 1278 1277
1352 1351 1350 1350 1349 1348 1347 1346 1345 1344 1342 1341 1340 1338 1336 1335 1333 1331 1329 1327 1326 1324 1322 1320 1318 1316 1314 1312 1309 1307 1304 1301 1298 1296 1293 1291 1289 1287 1284 1282 1280 1278 1276 1274
1350 1349 1348 1347 1346 1345 1344 1343 1342 1340 1339 1337 1336 1334 1332 1331 1329 1328 1326 1325 1322 1321 1319 1317 1315 1313 1311 1309 1306 1303 1301 1298 1295 1293 1290 1288 1286 1284 1281 1279 1277 1275 1273 1271
1349 1347 1346 1345 1344 1342 1341 1340 1338 1337 1335 1334 1332 1331 1329 1327 1326 1324 1322 1321 1319 1317 1316 1314 1312 1310 1308 1305 1303 1300 1297 1295 1292 1290 1288 1286 1284 1281 1279 1277 1275 1272 1270 1269
1346 1345 1344 1343 1342 1340 1338 1337 1336 1334 1332 1331 1329 1328 1326 1324 1323 1321 1320 1318 1316 1314 1312 1311 1309 1307 1304 1302 1299 1297 1294 1292 1290 1287 1285 1283 1281 1279 1277 1275 1273 1270 1268 1266
1344 1343 1342 1340 1339 1337 1336 1334 1333 1331 1330 1328 1327 1325 1324 1322 1320 1318 1317 1315 1313 1311 1309 1307 1305 1303 1301 1298 1296 1294 1292 1289 1287 1285 1283 1281 1279 1277 1275 1273 1271 1269 1267 1265
1342 1341 1339 1338 1337 1335 1334 1332 1330 1329 1327 1325 1324 1323 1321 1319 1317 1316 1314 1312 1310 1308 1306 1304 1302 1299 1297 1295 1293 1291 1289 1287 1284 1282 1280 1278 1277 1275 1273 1271 1269 1267 1265 1263
1339 1338 1337 1336 1334 1333 1331 1330 1328 1326 1325 1323 1321 1320 1318 1317 1315 1313 1311 1309 1307 1305 1303 1301 1299 1296 1294 1292 1290 1288 1286 1284 1282 1280 1278 1276 1275 1273 1271 1270 1268 1266 1264 1262